Weather Roundup
Issued by NWS Corpus Christi, TX

Current Version | Previous Version | Text Only | Print | Product List | Glossary On
Versions: 1 2 3 4 5 6 7 8 9 10 11 12 13 14 15 16 17 18 19 20 21 22 23 24 25 26 27 28 29 30 31 32 33 34 35 36 37 38 39 40 41 42 43 44 45 46 47 48 49 50
504
ASUS44 KCRP 180710
HRRCRP

SOUTH TEXAS REGIONAL WEATHER ROUNDUP
NATIONAL WEATHER SERVICE CORPUS CHRISTI TX
200 AM CDT WED OCT 18 2017


TXZ229>244-180800-
...CORPUS CHRISTI AREA OBSERVATIONS...

CITY           SKY/WX    TMP DP  RH WIND       PRES   REMARKS
CORPUS CHRISTI CLEAR     58  55  90 NW5       30.14F
NAS CORPUS CHR CLEAR     67  63  87 CALM      30.13F
ROCKPORT       CLEAR     57  56  96 CALM      30.14F
KINGSVILLE ARP FAIR      54  52  94 CALM      30.16S
KINGSVILLE NAS CLEAR     56  54  93 NW5       30.15S
ALICE          CLEAR     54  48  80 W3        30.15F
$$

...VICTORIA AREA OBSERVATIONS...

CITY           SKY/WX    TMP DP  RH WIND       PRES   REMARKS
PORT LAVACA    CLEAR     59  55  87 NE3       30.15F FOG
VICTORIA       CLEAR     51  49  92 NE5       30.16S
BEEVILLE       FAIR      55  43  64 CALM      30.15F
PLEASANTON     CLEAR     49  46  88 CALM      30.17S
SAN ANTONIO    CLEAR     52  45  77 NW6       30.17F
$$

...LAREDO AREA OBSERVATIONS...

CITY           SKY/WX    TMP DP  RH WIND       PRES   REMARKS
LAREDO         CLEAR     61  51  70 SE8       30.16F
COTULLA        CLEAR     56  44  64 SE6       30.15F
DEL RIO        CLEAR     54  46  74 E6        30.13F
MCALLEN        CLEAR     64  60  87 CALM      30.15F
HEBBRONVILLE   CLEAR     54  49  81 SW6       30.16F
$$

...OTHER TEXAS OBSERVATIONS...

CITY           SKY/WX    TMP DP  RH WIND       PRES   REMARKS
BROWNSVILLE    CLEAR     64  62  93 N5        30.13F
HOUSTON        CLEAR     56  52  86 CALM      30.16F
COL. STATION   CLEAR     55  45  68 CALM      30.16S
AUSTIN         CLEAR     45  43  93 CALM      30.16F
WACO           CLEAR     53  45  74 S8        30.16S
FORT WORTH     CLEAR     57  43  59 SE6       30.14S
WICHITA FALLS  CLEAR     51  44  77 S10       30.09F
LUBBOCK        CLEAR     62  35  36 S15       30.11F
EL PASO        MOCLDY    66  42  41 CALM      30.12S
$$

...MARINE OBSERVATIONS...

STATION/POSITION TIME  SKY/WX   TEMP    WIND        PRES    VSBY  WAVE   SWELL
                                AIR SEA DIR/SP/G                  HT/PER HT/PER
                 (UTC)          (F)     (DEG/KT/KT) (MB)    (MI)  (FT/S) (FT/S)
PORT ARANSAS     NOT AVBL
BUOY 90 E PORT A 0550            74 82   60/ 12/ 14 1020.2          3/ 6   2/ 6
BUOY 200 E PT IS 0550            78 84   40/ 12/ 16 1018.5          5/ 7   3/ 7
BUOY 15 E GALVES 0550            74 80   40/  6/  8 1020.7          2/ 6   2/ 6
$$




USA.gov is the U.S. government's official web portal to all federal, state and local government web resources and services.